Weather History for KSYR - October, 2014

Change the Weather History Date:

Saturday, October 4, 2014

  Actual Average Record
Temperature  
Mean Temperature 54 °F 55 °F  
Max Temperature 64 °F 65 °F 84 °F (1931)
Min Temperature 44 °F 45 °F 28 °F (1948)
Degree Days  
Heating Degree Days 11 11  
Month to date heating degree days 13 41  
Since 1 July heating degree days 127 208  
Cooling Degree Days 0 0  
Month to date cooling degree days 0 0  
Year to date cooling degree days 634 565  
Growing Degree Days 4 (Base 50)    
Moisture  
Dew Point 51 °F    
Average Humidity 78    
Maximum Humidity 90    
Minimum Humidity 66    
Precipitation  
Precipitation 0.57 in 0.12 in 0.86 in (1999)
Month to date precipitation 0.60 0.46  
Year to date precipitation 31.24 28.74  
Snow  
Snow 0.00 in 0.00 in T in (1968)
Month to date snowfall 0.0 0.0  
Since 1 July snowfall 0.0 0.0  
Since 1 September snowfall 0.0 0.0  
Snow Depth 0.00 in    
Sea Level Pressure  
Sea Level Pressure 29.59 in    
Wind  
Wind Speed 8 mph (SSW)    
Max Wind Speed 22 mph    
Max Gust Speed 29 mph    
Visibility 8 miles    
Events Rain    
T = Trace of Precipitation, MM = Missing Value Source: NWS Daily Summary

Daily Weather History Graph

Daily Weather History Graph

Search for Another Location

Airport or City:

Trip Planner

Search our weather history database for the weather conditions in past years. The results will help you decide how hot, cold, wet, or windy it might be!

Date:

Astronomy

Oct. 04, 2014 Rise Set
Actual Time 7:05 AM EDT 6:40 PM EDT
Civil Twilight 6:36 AM EDT 7:08 PM EDT
Nautical Twilight 6:03 AM EDT 7:41 PM EDT
Astronomical Twilight 5:30 AM EDT 8:14 PM EDT
Moon 4:21 PM EDT (10/4) 2:23 AM EDT (10/4)
Length of Visible Light 12h 31m
Length of Day
11h 35m
Waxing Gibbous, 81% of the Moon is Illuminated
Oct 4
Waxing Gibbous
Oct 8
Full
Oct 15
Last Quarter
Oct 23
New
Oct 30
First Quarter

Hourly Weather History & Observations

Time (EDT) Temp. Windchill Dew Point Humidity Pressure Visibility Wind Dir Wind Speed Gust Speed Precip Events Conditions
12:54 AM 64.0 °F - 57.0 °F 78% 29.62 in 10.0 mi ESE 10.4 mph - 0.01 in Rain Light Rain
1:54 AM 63.0 °F - 55.9 °F 78% 29.59 in 10.0 mi ESE 10.4 mph - 0.01 in   Light Drizzle
2:17 AM 64.0 °F - 55.0 °F 73% 29.59 in 10.0 mi SE 16.1 mph 20.7 mph 0.00 in Rain Light Rain
2:54 AM 62.1 °F - 55.9 °F 80% 29.56 in 10.0 mi SE 16.1 mph 24.2 mph 0.01 in Rain Light Rain
3:15 AM 62.1 °F - 55.0 °F 78% 29.56 in 10.0 mi SE 15.0 mph 28.8 mph 0.00 in Rain Light Rain
3:54 AM 62.1 °F - 55.0 °F 78% 29.54 in 10.0 mi SE 12.7 mph - 0.00 in Rain Light Rain
4:54 AM 62.1 °F - 54.0 °F 75% 29.53 in 10.0 mi SSE 10.4 mph - 0.00 in   Overcast
5:54 AM 61.0 °F - 55.0 °F 81% 29.53 in 10.0 mi SE 8.1 mph - 0.00 in Rain Light Rain
6:54 AM 60.1 °F - 55.9 °F 86% 29.54 in 10.0 mi SE 9.2 mph - 0.02 in Rain Light Rain
7:54 AM 60.1 °F - 55.9 °F 86% 29.55 in 10.0 mi SSE 11.5 mph - 0.03 in Rain Light Rain
8:54 AM 61.0 °F - 57.0 °F 87% 29.55 in 10.0 mi WSW 4.6 mph - 0.03 in Rain Light Rain
9:12 AM 61.0 °F - 57.0 °F 87% 29.59 in 2.0 mi West 15.0 mph - 0.02 in Rain Light Rain
9:15 AM 60.1 °F - 55.9 °F 86% 29.58 in 1.5 mi WSW 15.0 mph 21.9 mph 0.05 in Rain Heavy Rain
9:30 AM 59.0 °F - 55.0 °F 87% 29.58 in 2.5 mi WSW 17.3 mph 21.9 mph 0.15 in Rain Rain
9:39 AM 59.0 °F - 55.0 °F 87% 29.58 in 3.0 mi WSW 9.2 mph - 0.16 in Rain Light Rain
9:54 AM 59.0 °F - 54.0 °F 83% 29.56 in 7.0 mi SW 8.1 mph - 0.18 in Rain Light Rain
10:54 AM 60.1 °F - 55.9 °F 86% 29.57 in 10.0 mi WSW 8.1 mph - 0.04 in Rain Light Rain
11:54 AM 60.1 °F - 53.1 °F 78% 29.56 in 10.0 mi West 9.2 mph - 0.01 in Rain Light Rain
12:54 PM 59.0 °F - 53.1 °F 81% 29.57 in 10.0 mi SE 3.5 mph - 0.03 in Rain Light Rain
1:54 PM 59.0 °F - 55.0 °F 87% 29.54 in 5.0 mi SE 5.8 mph - 0.02 in Rain Light Rain
2:03 PM 59.0 °F - 55.9 °F 90% 29.56 in 2.0 mi Variable 3.5 mph - 0.02 in Rain Heavy Rain
2:26 PM 54.0 °F - 51.1 °F 90% 29.56 in 4.0 mi WNW 13.8 mph - 0.18 in Rain Light Rain
2:54 PM 54.0 °F - 50.0 °F 86% 29.56 in 8.0 mi West 9.2 mph - 0.19 in Rain Light Rain
3:00 PM 54.0 °F - 50.0 °F 86% 29.57 in 8.0 mi WNW 6.9 mph - 0.00 in Rain Light Rain
3:54 PM 55.0 °F - 48.9 °F 80% 29.56 in 10.0 mi Calm Calm - 0.00 in   Overcast
4:54 PM 55.0 °F - 51.1 °F 86% 29.57 in 10.0 mi Calm Calm - 0.00 in Rain Light Rain
5:54 PM 55.9 °F - 51.1 °F 84% 29.59 in 10.0 mi Calm Calm - 0.00 in   Overcast
6:54 PM 54.0 °F - 45.0 °F 72% 29.61 in 10.0 mi WNW 13.8 mph 18.4 mph N/A   Mostly Cloudy
7:54 PM 50.0 °F - 39.9 °F 68% 29.65 in 10.0 mi West 11.5 mph - N/A   Mostly Cloudy
8:54 PM 48.9 °F - 39.9 °F 71% 29.67 in 10.0 mi West 9.2 mph - N/A   Overcast
9:54 PM 48.0 °F - 39.0 °F 71% 29.67 in 10.0 mi WSW 10.4 mph - N/A   Mostly Cloudy
10:54 PM 46.9 °F - 39.0 °F 74% 29.69 in 10.0 mi WSW 10.4 mph - N/A   Mostly Cloudy
11:54 PM 45.0 °F 40.6 °F 37.0 °F 74% 29.69 in 10.0 mi West 8.1 mph - N/A   Scattered Clouds